[[{"header":{"parameterUnit":"m.s-1","parameterCategory":1,"la1":30.2991,"la2":30.254,"lo1":-89.0895,"lo2":-89.0444,"dy":0.0017,"dx":0.0017,"nx":28,"ny":28,"refTime":"2024-07-16T03:00:00:Z","depth":0,"parameterNumber":2,"parameterNumberName":"U-component_of_WINDS"},"data":[0,0,0,0,0,0,0,0,0,0,0,0,0,0,0,0,0,0,0,0,0,0,0,0,0,0,0,0,0,0,0,0,0,0,0,0,0,0,0,0,0,0,0,0,0,0,0,0,0,0,0,0,0,0,0,0,0,0,0.359,0.359,0,0.366,0.3661,0.3662,0.3693,0.3693,0.3693,0.3693,0.3764,0.3766,0.3768,0,0,0,0,0,0,0,0,0,0,0,0,0,0.3478,0.348,0.359,0.359,0.3591,0.366,0.3661,0.3662,0.3693,0.3693,0.3693,0.3693,0.3763,0.3766,0.3768,0,0,0,0,0,0,0,0,0,0,0,0,0,0.3535,0.3481,0.3589,0.3615,0.3618,0.366,0.3661,0.3663,0.3693,0.3693,0.3693,0.3693,0.3763,0.3765,0.3768,0.3789,0,0,0.3777,0.3779,0,0,0,0,0,0,0,0,0.3532,0.3539,0.3611,0.3614,0.3617,0.3668,0.3648,0.3705,0.3693,0.3665,0.3693,0.3693,0.3732,0.3738,0.3751,0.3793,0.3796,0.3778,0.378,0.3781,0.3782,0,0,0,0,0,0,0,0.3528,0.3537,0.3618,0.3612,0.3616,0.3622,0.363,0.3659,0.3698,0.3667,0.367,0.3678,0.3734,0.3748,0.3753,0.3797,0.3778,0.378,0.3782,0.3783,0.3857,0.3858,0,0,0,0,0,0,0.352,0.3533,0.3615,0.362,0.3573,0.3624,0.3633,0.3652,0.3698,0.3705,0.3678,0.3679,0.3743,0.3749,0.3756,0.3782,0.3781,0.3784,0.3785,0.3857,0.3858,0.3858,0,0,0,0,0,0,0.3518,0.3527,0.3613,0.3577,0.3588,0.3626,0.3647,0.3653,0.3668,0.3706,0.3713,0.3686,0.3743,0.3751,0.3781,0.3785,0.3785,0.3788,0.3857,0.3857,0.3858,0.3837,0,0,0,0,0,0,0.3514,0.3526,0.3536,0.3577,0.359,0.3637,0.3647,0.3655,0.3673,0.3675,0.3715,0.3722,0.3744,0.3776,0.3783,0.3789,0.379,0.3857,0.3857,0.3858,0.3837,0.3836,0.3835,0,0,0,0,0,0.351,0.3527,0.3536,0.3546,0.3603,0.3637,0.3645,0.3671,0.3673,0.3682,0.3706,0.372,0.3783,0.3779,0.3787,0.3794,0.3857,0.3857,0.3858,0.3837,0.3836,0.3835,0,0,0,0,0,0,0.3484,0.3533,0.3543,0.3574,0.3601,0.3643,0.3655,0.3669,0.3696,0.3696,0.3727,0.3735,0.3762,0.3781,0.3775,0.3816,0.3821,0.3823,0.3803,0.3802,0.3801,0.3796,0.3792,0,0,0,0,0,0.3482,0.3507,0.3548,0.357,0.3584,0.3617,0.3633,0.365,0.368,0.3691,0.3718,0.3745,0.3771,0.3788,0.3814,0.384,0.3848,0.3849,0.3848,0.3847,0.3849,0.3863,0.3863,0.3859,0.3859,0.3859,0,0,0.3478,0.3507,0.3521,0.3566,0.3589,0.3613,0.3626,0.3652,0.3669,0.3695,0.3724,0.3744,0.3777,0.3804,0.3817,0.3821,0.3851,0.3847,0.3846,0.3849,0.3863,0.3863,0.3864,0.386,0.3859,0.3859,0,0,0.3482,0.3508,0.3529,0.3552,0.3587,0.3609,0.3614,0.3653,0.3667,0.3697,0.3716,0.3737,0.3781,0.3803,0.382,0.3831,0.3845,0.3839,0.3835,0.3848,0.3848,0.3849,0.3852,0.3853,0.384,0.384,0.384,0,0.3473,0.3511,0.3538,0.3562,0.3581,0.3605,0.3626,0.3646,0.3688,0.37,0.3703,0.3758,0.3782,0.3814,0.3816,0.383,0.3835,0.3835,0.3846,0.3847,0.3847,0.3851,0.3852,0.3839,0.3839,0.3839,0.3839,0,0.3496,0.3522,0.3535,0.3575,0.3595,0.3617,0.3647,0.3663,0.3678,0.3699,0.3728,0.3757,0.3789,0.3797,0.3812,0.3831,0.3832,0.384,0.3846,0.3846,0.385,0.3852,0.3838,0.3838,0.3838,0.3839,0,0,0.3488,0.3541,0.3546,0.3564,0.3603,0.3623,0.3646,0.3677,0.369,0.3718,0.3737,0.3773,0.378,0.3799,0.3817,0.3828,0.3834,0.3835,0.3836,0.3833,0.3856,0.3849,0.3851,0.3843,0.3843,0.3844,0.3853,0,0.3497,0.354,0.3565,0.3597,0.3621,0.3643,0.3662,0.3688,0.3708,0.3729,0.3751,0.3776,0.3784,0.3795,0.3808,0.3831,0.3839,0.383,0.386,0.3861,0.3852,0.3853,0.3847,0.3854,0.3854,0.3855,0.3855,0,0.3515,0.3542,0.3577,0.3613,0.3624,0.3641,0.3671,0.3692,0.3721,0.3734,0.3755,0.3772,0.3795,0.3798,0.383,0.3824,0.3837,0.385,0.3851,0.3855,0.3858,0.3856,0.3857,0.3858,0.3858,0.3857,0.3857,0,0.3505,0.355,0.3576,0.3591,0.3633,0.3645,0.3663,0.3692,0.3709,0.3734,0.3745,0.3773,0.3788,0.3809,0.3833,0.3833,0.3862,0.3868,0.3873,0.3872,0.3879,0.3878,0.3881,0.3887,0.3887,0.3887,0.3887,0,0.3513,0.3533,0.3572,0.3588,0.3611,0.3638,0.3659,0.3679,0.3704,0.3724,0.3744,0.3762,0.3792,0.3813,0.3831,0.3855,0.3861,0.3872,0.3877,0.387,0.3869,0.388,0.388,0.3887,0.3887,0.3887,0.3887,0,0.3506,0.3533,0.3563,0.36,0.361,0.3625,0.3657,0.3673,0.3693,0.3717,0.3724,0.3755,0.3781,0.3806,0.3841,0.3853,0.3876,0.3882,0.3866,0.3869,0.3873,0.3872,0.3884,0.3886,0.389,0.389,0.389,0,0.351,0.3526,0.3565,0.358,0.3598,0.3621,0.3638,0.3665,0.3682,0.3715,0.3726,0.3753,0.3777,0.3816,0.3842,0.3868,0.3875,0.3877,0.3879,0.3871,0.3874,0.3873,0.3874,0.3876,0.3876,0.3876,0.3876,0,0.3513,0.3525,0.355,0.3579,0.3598,0.3622,0.3646,0.3657,0.3688,0.3705,0.3732,0.375,0.3785,0.3811,0.384,0.3857,0.3871,0.3875,0.3877,0.3871,0.3861,0.3866,0.3864,0.3874,0.3874,0.3875,0.3875,0.3875,0.3512,0.3526,0.3556,0.3582,0.3603,0.3625,0.3642,0.3663,0.3686,0.3717,0.3731,0.3757,0.3784,0.3824,0.3842,0.3862,0.3866,0.387,0.3871,0.3871,0.3869,0.3857,0.3867,0.3867,0.3867,0.3867,0.3867,0,0.3516,0.3536,0.356,0.3593,0.3613,0.3625,0.3652,0.3667,0.3691,0.3715,0.3737,0.3767,0.3792,0.3819,0.3845,0.3856,0.3863,0.3862,0.3862,0.3865,0.3865,0.386,0.3856,0.3856,0.3856,0.3856,0.3856,0.3856,0.3521,0.3546,0.3561,0.3597,0.3617,0.3643,0.3658,0.3677,0.3697,0.3729,0.375,0.3768,0.3793,0.3821,0.3844,0.3851,0.386,0.3857,0.3866,0.3865,0.3866,0.3866,0.3862,0.3859,0.3859,0.3865,0.3865,0.3865]},{"header":{"parameterUnit":"m.s-1","parameterCategory":1,"la1":30.2991,"la2":30.254,"lo1":-89.0895,"lo2":-89.0444,"dy":0.0017,"dx":0.0017,"nx":28,"ny":28,"refTime":"2024-07-16T03:00:00:Z","depth":0,"parameterNumber":3,"parameterNumberName":"V-component_of_WINDS"},"data":[0,0,0,0,0,0,0,0,0,0,0,0,0,0,0,0,0,0,0,0,0,0,0,0,0,0,0,0,0,0,0,0,0,0,0,0,0,0,0,0,0,0,0,0,0,0,0,0,0,0,0,0,0,0,0,0,0,0,5.3965,5.3964,0,5.3958,5.3957,5.3957,5.3899,5.3897,5.3896,5.3895,5.3888,5.3889,5.389,0,0,0,0,0,0,0,0,0,0,0,0,0,5.3928,5.3929,5.3965,5.3964,5.3964,5.3958,5.3957,5.3957,5.3899,5.3897,5.3896,5.3894,5.3887,5.3889,5.389,0,0,0,0,0,0,0,0,0,0,0,0,0,5.3934,5.3929,5.3965,5.3934,5.3932,5.3958,5.3957,5.3957,5.39,5.3897,5.3895,5.3893,5.3887,5.3889,5.389,5.3945,0,0,5.3896,5.3896,0,0,0,0,0,0,0,0,5.3934,5.3936,5.3939,5.3937,5.3934,5.3927,5.3942,5.3953,5.39,5.3912,5.3895,5.3892,5.3903,5.3903,5.3906,5.3944,5.3944,5.3896,5.3897,5.3898,5.3898,0,0,0,0,0,0,0,5.3934,5.3936,5.3962,5.3939,5.3936,5.3921,5.392,5.3944,5.3919,5.3911,5.3906,5.3906,5.3901,5.3905,5.3906,5.3944,5.3896,5.3897,5.3898,5.3899,5.4025,5.4028,0,0,0,0,0,0,5.3937,5.3936,5.3962,5.3962,5.3928,5.3924,5.3922,5.3931,5.3919,5.3915,5.3908,5.3904,5.3903,5.3904,5.3905,5.3967,5.3898,5.3899,5.39,5.4023,5.4026,5.4028,0,0,0,0,0,0,5.3937,5.394,5.3962,5.3948,5.3949,5.3927,5.3937,5.3932,5.3936,5.3917,5.3913,5.3917,5.3901,5.3903,5.3935,5.3966,5.39,5.3902,5.402,5.4024,5.4027,5.4092,0,0,0,0,0,0,5.3936,5.394,5.3961,5.3948,5.395,5.3992,5.3939,5.3934,5.3939,5.3933,5.3924,5.392,5.39,5.3933,5.3937,5.3967,5.3903,5.4017,5.4022,5.4026,5.4087,5.4097,5.4106,0,0,0,0,0,5.3935,5.398,5.3962,5.3966,5.3975,5.3994,5.3995,5.397,5.3942,5.3962,5.395,5.3921,5.3963,5.3937,5.3941,5.3972,5.4015,5.4021,5.4026,5.4083,5.4095,5.4106,0,0,0,0,0,0,5.3996,5.3977,5.3958,5.4,5.3999,5.3984,5.4009,5.3984,5.3992,5.3986,5.3955,5.3953,5.399,5.3984,5.3956,5.4024,5.3984,5.399,5.4026,5.4038,5.4047,5.4047,5.3904,0,0,0,0,0,5.4015,5.4032,5.4014,5.4053,5.4054,5.4032,5.4039,5.402,5.4018,5.4017,5.4007,5.4007,5.4019,5.4028,5.4039,5.4087,5.4083,5.411,5.412,5.4128,5.4133,5.4157,5.4169,5.4045,5.4045,5.4045,0,0,5.4053,5.4045,5.4057,5.4065,5.4062,5.408,5.4032,5.4053,5.4066,5.402,5.405,5.4043,5.404,5.408,5.4097,5.4076,5.4167,5.4134,5.4141,5.4142,5.4164,5.4175,5.4186,5.4049,5.4048,5.4048,0,0,5.4131,5.4127,5.4159,5.4157,5.4153,5.4138,5.4146,5.4135,5.4128,5.4158,5.4123,5.4139,5.4162,5.4161,5.4163,5.4242,5.4215,5.4247,5.4296,5.432,5.433,5.4338,5.4365,5.4375,5.4252,5.4253,5.4253,0,5.4179,5.4205,5.4178,5.4201,5.4206,5.4165,5.4197,5.4196,5.4197,5.42,5.4178,5.4205,5.42,5.4239,5.4258,5.4262,5.427,5.4247,5.433,5.4339,5.4346,5.4372,5.4382,5.4256,5.4256,5.4255,5.4255,0,5.4264,5.4282,5.4308,5.4309,5.4316,5.4344,5.4321,5.4332,5.4312,5.43,5.433,5.4323,5.4331,5.4339,5.4321,5.4376,5.4363,5.4336,5.4295,5.4362,5.4385,5.4395,5.4262,5.426,5.4259,5.4258,0,0,5.438,5.4365,5.4375,5.4375,5.4368,5.4382,5.4408,5.4416,5.4425,5.4427,5.4447,5.4468,5.4443,5.4446,5.4427,5.4448,5.451,5.4418,5.4417,5.4434,5.4569,5.4588,5.46,5.4492,5.4494,5.4495,5.4569,0,5.4454,5.4497,5.4473,5.4519,5.4536,5.4498,5.452,5.4518,5.4508,5.452,5.4508,5.4523,5.4489,5.4491,5.451,5.4498,5.4536,5.4493,5.451,5.4511,5.4511,5.4613,5.4633,5.4703,5.4578,5.4579,5.458,0,5.4547,5.4552,5.46,5.4589,5.4595,5.4616,5.4621,5.4634,5.4631,5.4622,5.4625,5.4601,5.4625,5.4586,5.4619,5.459,5.4596,5.4591,5.4593,5.4593,5.4549,5.4614,5.4724,5.4735,5.4595,5.4594,5.4593,0,5.4626,5.4645,5.4675,5.4677,5.4665,5.4681,5.4677,5.4672,5.4678,5.4683,5.4687,5.4695,5.4699,5.4706,5.4684,5.4658,5.472,5.4679,5.4713,5.4713,5.4726,5.4726,5.4838,5.4733,5.4732,5.4732,5.4732,0,5.4711,5.4741,5.4711,5.4729,5.4762,5.4735,5.4768,5.476,5.4756,5.4773,5.4741,5.4757,5.4729,5.4742,5.4726,5.4755,5.4758,5.4751,5.4746,5.4753,5.4754,5.4756,5.475,5.4735,5.4734,5.4734,5.4733,0,5.4804,5.4785,5.4815,5.4802,5.48,5.4825,5.4813,5.483,5.4817,5.4839,5.4842,5.4822,5.4836,5.4816,5.4828,5.4817,5.4858,5.4846,5.4858,5.4854,5.4889,5.4886,5.5006,5.502,5.4906,5.4907,5.4908,0,5.4859,5.4881,5.487,5.4879,5.4877,5.4892,5.4898,5.4872,5.488,5.4879,5.4896,5.4907,5.4915,5.4939,5.4926,5.4935,5.4923,5.4964,5.4924,5.493,5.4922,5.492,5.4922,5.4972,5.4973,5.4974,5.4975,0,5.4958,5.4948,5.4957,5.4964,5.4973,5.4977,5.4979,5.4988,5.4961,5.4971,5.4985,5.4991,5.5004,5.5015,5.5021,5.5017,5.4992,5.4988,5.4996,5.5003,5.5009,5.5006,5.488,5.4985,5.4984,5.4984,5.4983,5.4983,5.5033,5.5051,5.5046,5.5058,5.5057,5.5059,5.5074,5.5063,5.5075,5.5082,5.5067,5.5085,5.5081,5.5086,5.5085,5.5099,5.508,5.5092,5.5095,5.5098,5.5103,5.5008,5.51,5.5099,5.5099,5.5099,5.5099,0,5.513,5.5125,5.5136,5.514,5.5149,5.5125,5.5126,5.5136,5.5151,5.515,5.5159,5.5175,5.5186,5.5174,5.5183,5.5196,5.5184,5.5199,5.5197,5.5196,5.5119,5.5111,5.5208,5.5208,5.5208,5.5208,5.5208,5.5208,5.5181,5.521,5.5199,5.5226,5.5221,5.5238,5.524,5.5243,5.5241,5.5261,5.527,5.5262,5.5256,5.5264,5.5274,5.527,5.5274,5.5292,5.5285,5.5213,5.5202,5.5192,5.5183,5.5294,5.5294,5.536,5.5361,5.5361]}]]